Погода в Синегорском

Россия / Ростовская область     48°00′42″N   40°49′55″E
темп.,
°C
ветер,
м/с
пор.,
м/с
влажн.,
%
обл.,
%
осадки,
мм/ч
давл.,
гПа
погр.,
м
19 января, ср
ср1900:00−4юз259553 0.0 101170
03:00−5зюз279180 0.0 1014157
06:00−7ююз229627 0.0 101539
09:00−6ююз2495100 0.0 1016143
12:00−3юз368297 0.1 1016780
15:00−3зюз3480100 0.2 1017700
18:00−6зсз229388 0.0 101840
21:00−7зсз229537 0.1 101830
20 января, чт
чт2000:00−6ссз249667 0.1 1019165
03:00−8сз239763 0.1 101967
06:00−9сз239783 0.0 102082
09:00−9зсз129667 0.1 1021115
12:00−7з1286100 0.0 1021353
15:00−6зюз2384100 0.0 1020413
18:00−9ююв119533 0.0 102010
21:00−9ююв229741 0.0 102027
21 января, пт
пт2100:00−9ююв359874 0.0 102077
03:00−8ююв379785 0.0 1019133
06:00−6юв41094100 0.0 1017235
09:00−4ююв61396100 0.4 1016397
12:00−2ююв71597100 1.7 1015585
15:000ю61498100 2.9 1013640
18:00+1ююз61298100 0.1 1013497
21:000ююз4998100 0.4 1014414
22 января, сб
сб2200:000ююз2599100 0.4 1014236
03:00−1ю1299100 2.4 1014116
06:00−2ссз3598100 3.9 1013283
09:00−2ссз3598100 7.3 1015266
12:00−2сз2290100 0.9 1016376
15:00−2з2387100 0.9 1017421
18:00−4ююз1194100 0.0 101914
21:00−3ю2395100 0.0 102065
23 января, вс
вс2300:00−4зюз1197100 0.0 102111
03:00−7св1198100 0.0 102210
06:00−6св2297100 0.0 102255
09:00−4св3795100 0.0 1023246
12:00−2св5997100 0.6 1022385
15:00−1св5998100 1.9 1022424
18:000всв51097100 0.3 1021470
21:00+1в51299100 0.4 1021527